Weather History for Vicksburg, MS

Change the Weather History Date:

Friday, April 4, 2014

  Actual Average Record
Temperature  
Mean Temperature 65 °F 62 °F  
Max Temperature 74 °F 73 °F 86 °F (1981)
Min Temperature 55 °F 50 °F 28 °F (1987)
Degree Days  
Heating Degree Days 0 5  
Month to date heating degree days 0 21  
Since 1 July heating degree days 2777 2262  
Cooling Degree Days 0 2  
Month to date cooling degree days 24 7  
Year to date cooling degree days 38 39  
Growing Degree Days 15 (Base 50)    
Moisture  
Dew Point 57 °F    
Average Humidity 74    
Maximum Humidity 100    
Minimum Humidity 47    
Precipitation  
Precipitation 1.35 in 0.16 in 3.50 in (1999)
Month to date precipitation 1.38 0.69  
Year to date precipitation 12.73 16.06  
Sea Level Pressure  
Sea Level Pressure 29.97 in    
Wind  
Wind Speed 7 mph (NW)    
Max Wind Speed 23 mph    
Max Gust Speed 29 mph    
Visibility 9 miles    
Events Fog , Rain    
T = Trace of Precipitation, MM = Missing Value Source: NWS Daily Summary

Daily Weather History Graph

Daily Weather History Graph

Search for Another Location

Airport:

Trip Planner

Search our weather history database for the weather conditions in past years. The results will help you decide how hot, cold, wet, or windy it might be!

Date:

Astronomy

Apr. 04, 2014 Rise Set
Actual Time 6:48 AM CDT 7:26 PM CDT
Civil Twilight 6:23 AM CDT 7:50 PM CDT
Nautical Twilight 5:54 AM CDT 8:20 PM CDT
Astronomical Twilight 5:24 AM CDT 8:49 PM CDT
Moon 10:17 AM CDT (4/4) No Moon Set
Length of Visible Light 13h 27m
Length of Day
12h 37m
Waxing Crescent, 25% of the Moon is Illuminated
Apr 4
Waxing Crescent
Apr 7
First Quarter
Apr 15
Full
Apr 22
Last Quarter
Apr 29
New

Hourly Weather History & Observations

Time (CDT) Temp. Dew Point Humidity Pressure Visibility Wind Dir Wind Speed Gust Speed Precip Events Conditions
12:53 AM 73.9 °F 66.9 °F 79% 29.82 in 10.0 mi South 20.7 mph 27.6 mph 0.00 in   Overcast
1:53 AM 73.0 °F 66.9 °F 81% 29.81 in 10.0 mi South 11.5 mph 19.6 mph N/A   Mostly Cloudy
2:53 AM 73.9 °F 66.9 °F 79% 29.83 in 10.0 mi SSW 5.8 mph 17.3 mph N/A   Overcast
3:53 AM 73.0 °F 66.9 °F 81% 29.83 in 10.0 mi South 8.1 mph - N/A   Overcast
4:53 AM 72.0 °F 66.9 °F 84% 29.87 in 10.0 mi NNW 10.4 mph 18.4 mph 0.00 in   Overcast
5:20 AM 64.0 °F 62.1 °F 93% 29.92 in 1.5 mi West 12.7 mph 21.9 mph 0.15 in Rain Heavy Rain
5:30 AM 63.0 °F 62.1 °F 97% 29.87 in 0.5 mi WNW 19.6 mph 28.8 mph 0.65 in Fog , Rain Heavy Rain
5:40 AM 63.0 °F 62.1 °F 97% 29.88 in 1.0 mi WSW 10.4 mph 24.2 mph 0.84 in Rain Heavy Rain
5:53 AM 63.0 °F 62.1 °F 97% 29.87 in 1.5 mi WSW 5.8 mph - 1.01 in Rain Heavy Rain
6:06 AM 63.0 °F 62.1 °F 97% 29.91 in 3.0 mi South 11.5 mph 18.4 mph 0.10 in Rain Heavy Rain
7:53 AM 63.0 °F 62.1 °F 97% 29.94 in 10.0 mi Calm Calm - 0.08 in Rain Light Rain
8:53 AM 64.0 °F 63.0 °F 96% 29.99 in 10.0 mi SSW 3.5 mph - 0.00 in   Overcast
9:06 AM 64.0 °F 63.0 °F 96% 29.95 in 10.0 mi Calm Calm - N/A   Overcast
9:33 AM 64.0 °F 63.0 °F 96% 29.96 in 10.0 mi West 6.9 mph - N/A   Mostly Cloudy
9:53 AM 64.9 °F 63.0 °F 93% 30.04 in 10.0 mi West 11.5 mph - 0.00 in Rain Light Rain
10:27 AM 64.0 °F 62.1 °F 93% 29.99 in 8.0 mi NW 4.6 mph - 0.03 in Rain Light Rain
10:53 AM 63.0 °F 60.1 °F 90% 30.01 in 10.0 mi NNW 10.4 mph 21.9 mph 0.04 in   Overcast
11:04 AM 60.1 °F 55.0 °F 83% 30.00 in 10.0 mi NNW 11.5 mph 20.7 mph N/A   Overcast
11:16 AM 59.0 °F 52.0 °F 78% 30.01 in 10.0 mi NW 12.7 mph 20.7 mph N/A   Overcast
11:53 AM 60.1 °F 51.1 °F 72% 30.02 in 10.0 mi NNW 12.7 mph 21.9 mph N/A   Overcast
12:53 PM 64.9 °F 52.0 °F 63% 30.04 in 10.0 mi NNW 10.4 mph - N/A   Mostly Cloudy
1:53 PM 66.9 °F 52.0 °F 59% 30.04 in 10.0 mi NNW 8.1 mph - N/A   Clear
2:53 PM 69.1 °F 52.0 °F 54% 30.04 in 10.0 mi North 9.2 mph - N/A   Clear
3:53 PM 69.1 °F 50.0 °F 51% 30.03 in 10.0 mi WNW 6.9 mph - N/A   Clear
4:53 PM 69.1 °F 48.0 °F 47% 30.02 in 10.0 mi NW 8.1 mph - N/A   Clear
5:53 PM 69.1 °F 48.9 °F 49% 30.03 in 10.0 mi North 5.8 mph - N/A   Clear
6:53 PM 66.9 °F 48.0 °F 51% 30.03 in 10.0 mi North 3.5 mph - N/A   Clear
7:53 PM 63.0 °F 52.0 °F 67% 30.03 in 10.0 mi North 3.5 mph - N/A   Clear
8:53 PM 59.0 °F 51.1 °F 75% 30.07 in 10.0 mi NNE 5.8 mph - N/A   Clear
9:53 PM 59.0 °F 48.0 °F 67% 30.09 in 10.0 mi NNE 8.1 mph - N/A   Clear
10:53 PM 57.0 °F 45.0 °F 64% 30.10 in 10.0 mi NNE 8.1 mph - N/A   Clear
11:53 PM 55.0 °F 46.0 °F 72% 30.11 in 10.0 mi North 6.9 mph - N/A   Clear